Weather Roundup
Issued by NWS

Home | Current Version | Previous Version | Text Only | Print | Product List | Glossary On
Versions: 1 2 3 4 5 6 7 8 9 10 11 12 13 14 15 16 17 18 19 20 21 22 23 24 25 26 27 28 29 30 31 32 33 34 35 36 37 38 39 40 41 42 43 44 45 46 47 48 49 50
000
NZUS93 KARX 280910
HRRWXR

CURRENT HOURLY OBSERVATIONS ACROSS
MUCH OF THE UPPER MISSISSIPPI VALLEY
NATIONAL WEATHER SERVICE LA CROSSE WI
400 AM CDT TUE JUL 28 2015


...SOUTHEAST MINNESOTA...


CITY           SKY/WX    TMP DP  RH WIND       PRES   REMARKS
ROCHESTER      CLEAR     71  69  93 SE12      29.89F
ROCHESTER/MAYO FAIR      72  72 100 SE8       29.89F
WINONA         CLEAR     72  70  94 SE6       29.91F
AUSTIN         CLEAR     73  72  94 S9        29.86F FOG
ALBERT LEA     PTCLDY    73  72  94 S13       29.85F
DODGE CENTER   CLEAR     72  70  94 SE9       29.87F
PRESTON        CLEAR     70  68  92 S9        29.93F
OWATONNA       CLEAR     73  70  88 SE14G20   29.84F
FARIBAULT      CLEAR     73  72  94 SE8       29.83F
$$

...ELSEWHERE IN MINNESOTA...


CITY           SKY/WX    TMP DP  RH WIND       PRES   REMARKS
MINNEAPOLIS    CLEAR     74  70  87 SE14      29.83F
INTNL FALLS    PTCLDY    69  66  90 SE8       29.80F
DULUTH         CLEAR     70  65  84 SE9       29.87F
RED WING       PTCLDY    75  70  83 SE8       29.85F
REDWOOD FALLS  CLOUDY    73  66  78 SE18G25   29.71F
MANKATO        CLOUDY    73  66  78 SE15      29.80F
WORTHINGTON    MOCLDY    72  64  78 S15G22    29.77F
FAIRMONT       PTCLDY    72  63  73 S15       29.81F
$$

...SOUTHWEST WISCONSIN...


CITY           SKY/WX    TMP DP  RH WIND       PRES   REMARKS
LA CROSSE      CLEAR     73  66  78 SE7       29.91F
PRAIRIE DU CHI CLEAR     70  65  84 E7        29.94S
BOSCOBEL       CLEAR     70  65  84 CALM      29.96F
LONE ROCK      CLEAR     65  61  87 E6        29.98S
PLATTEVILLE    CLEAR     68  65  91 E7        29.98S
FORT MC COY    CLEAR     68  62  79 E5        29.95F
CAMP DOUGLAS   CLEAR     64  64 100 SE5       29.97S
VIROQUA        FAIR      68  66  94 SE10      29.96F
WIS DELLS      CLEAR     68  60  75 SE5       29.98F
$$

...ELSEWHERE IN WISCONSIN...


CITY           SKY/WX    TMP DP  RH WIND       PRES   REMARKS
MILWAUKEE      PTCLDY    67  61  81 CALM      30.00F
MADISON        CLEAR     68  62  81 SE5       29.99F
GREEN BAY      FOG       60  59  96 CALM      30.00F VSB 1/2
EAU CLAIRE     CLEAR     71  66  84 SE6       29.91F
BLACK RVR FLS  FAIR      68  66  92 SE3       29.93F
MEDFORD        CLEAR     65  62  88 SE5       29.99F
WAUSAU         CLEAR     64  61  90 E6        29.98F
WIS RAPIDS     CLEAR     68  61  78 S5        29.99F
MARSHFIELD     CLEAR     68  60  75 S6        29.98F
RICE LAKE      CLEAR     70  65  85 SE10      29.92S
$$

...NORTHEAST IOWA...


CITY           SKY/WX    TMP DP  RH WIND       PRES   REMARKS
DECORAH        PTCLDY    70  70 100 SE7       29.93S FOG
MASON CITY     CLOUDY    71  70  96 SE12      29.88F
CHARLES CITY   MOCLDY    72  72 100 SE10      29.90F
OELWEIN        CLEAR     72  72 100 SE8       29.93F FOG
$$

...ELSEWHERE IN IOWA...


CITY           SKY/WX    TMP DP  RH WIND       PRES   REMARKS
DES MOINES     PTCLDY    74  70  87 SE6       29.87S
IOWA CITY      CLEAR     72  70  93 SE3       29.94S
FORT DODGE     MOCLDY    72  66  83 S8        29.86F
$$

...NORTHERN ILLINOIS...


CITY           SKY/WX    TMP DP  RH WIND       PRES   REMARKS
CHICAGO-OHARE  PTCLDY    71  66  84 NE5       29.99S
CHICAGO-MIDWAY CLEAR     75  67  76 E6        29.98F
MOLINE         CLEAR     71  68  90 E7        29.94F
ROCKFORD       PTCLDY    69  63  81 E6        30.00F
PEORIA         PTCLDY    76  71  85 E5        29.95F
$$

NOTE: "FAIR" INDICATES FEW OR NO CLOUDS BELOW 12,000 FEET WITH NO
SIGNIFICANT WEATHER AND/OR OBSTRUCTIONS TO VISIBILITY. WIND
SPEEDS ARE IN MILES-PER-HOUR.



USA.gov is the U.S. government's official web portal to all federal, state and local government web resources and services.